• In Italy
  • List of Countries
  • For 7 days
  • Water Temperature
  • Satellite Maps
  • Weather Map
  • Weather Widgets
  • user-avatar
    Login

    Hourly Weather Hjorring

    Today, 22 September, Saturday

    Time Temperature Precipitation Wind Pressure Humidity
    00:00 +9°C° 0.1 mm 16 mps 742 mmHg 68%
    01:00 +9°C° 0 mm 13 mps 743 mmHg 71%
    02:00 +9°C° 0.1 mm 14 mps 744 mmHg 68%
    03:00 +10°C° 0.1 mm 15 mps 745 mmHg 65%
    04:00 +10°C° 0.1 mm 15 mps 746 mmHg 63%
    05:00 +10°C° 0.1 mm 15 mps 746 mmHg 65%
    06:00 +9°C° 0.1 mm 14 mps 747 mmHg 67%
    07:00 +9°C° 0.1 mm 13 mps 748 mmHg 69%
    08:00 +10°C° 0.1 mm 13 mps 748 mmHg 66%
    09:00 +10°C° 0.1 mm 12 mps 748 mmHg 64%
    10:00 +12°C° 0.1 mm 12 mps 749 mmHg 61%
    11:00 +12°C° 0.2 mm 12 mps 749 mmHg 60%
    12:00 +12°C° 0.2 mm 12 mps 749 mmHg 59%
    13:00 +12°C° 0.2 mm 13 mps 749 mmHg 58%
    14:00 +12°C° 0.2 mm 13 mps 749 mmHg 60%
    15:00 +10°C° 0.2 mm 13 mps 749 mmHg 62%
    16:00 +10°C° 0.2 mm 13 mps 749 mmHg 64%
    17:00 +10°C° 0.2 mm 13 mps 749 mmHg 68%
    18:00 +10°C° 0.2 mm 12 mps 749 mmHg 71%
    19:00 +9°C° 0.2 mm 12 mps 749 mmHg 75%
    20:00 +9°C° 0.1 mm 12 mps 749 mmHg 75%
    21:00 +9°C° 0.1 mm 11 mps 749 mmHg 74%
    22:00 +9°C° 0.1 mm 11 mps 749 mmHg 74%
    23:00 +9°C° 0 mm 12 mps 749 mmHg 73%

    Tomorrow, 23 September, Sunday

    Time Temperature Precipitation Wind Pressure Humidity
    00:00 +9°C° 0 mm 12 mps 749 mmHg 73%
    01:00 +9°C° 0 mm 12 mps 750 mmHg 72%
    02:00 +9°C° 0 mm 12 mps 750 mmHg 72%
    03:00 +9°C° 0 mm 12 mps 750 mmHg 72%
    04:00 +9°C° 0 mm 12 mps 750 mmHg 72%
    05:00 +9°C° 0 mm 11 mps 750 mmHg 72%
    06:00 +8°C° 0 mm 11 mps 751 mmHg 72%
    07:00 +8°C° 0 mm 10 mps 751 mmHg 72%
    08:00 +9°C° 0 mm 10 mps 751 mmHg 68%
    09:00 +11°C° 0 mm 10 mps 751 mmHg 65%
    10:00 +11°C° 0 mm 10 mps 752 mmHg 61%
    11:00 +12°C° 0 mm 10 mps 752 mmHg 60%
    12:00 +12°C° 0 mm 10 mps 752 mmHg 59%
    13:00 +12°C° 0 mm 10 mps 752 mmHg 57%
    14:00 +12°C° 0 mm 10 mps 752 mmHg 57%
    15:00 +11°C° 0 mm 9 mps 752 mmHg 58%
    16:00 +11°C° 0 mm 9 mps 751 mmHg 58%
    17:00 +11°C° 0 mm 9 mps 752 mmHg 57%
    18:00 +10°C° 0 mm 9 mps 752 mmHg 57%
    19:00 +10°C° 0 mm 9 mps 752 mmHg 57%
    20:00 +10°C° 0 mm 9 mps 753 mmHg 56%
    21:00 +10°C° 0 mm 9 mps 753 mmHg 56%
    22:00 +8°C° 0 mm 9 mps 754 mmHg 55%
    23:00 +8°C° 0.2 mm 9 mps 754 mmHg 56%

    Day after tomorrow, 24 September, Monday

    Time Temperature Precipitation Wind Pressure Humidity
    00:00 +9°C° 0.2 mm 8 mps 755 mmHg 57%
    01:00 +9°C° 0.2 mm 8 mps 755 mmHg 59%
    02:00 +7°C° 0.3 mm 8 mps 756 mmHg 59%
    03:00 +8°C° 0.3 mm 7 mps 757 mmHg 60%
    04:00 +8°C° 0.3 mm 7 mps 758 mmHg 60%
    05:00 +8°C° 0.4 mm 7 mps 758 mmHg 61%
    06:00 +8°C° 0.4 mm 7 mps 759 mmHg 62%
    07:00 +6°C° 0.4 mm 7 mps 760 mmHg 63%
    08:00 +8°C° 0.3 mm 6 mps 761 mmHg 61%
    09:00 +9°C° 0.3 mm 6 mps 761 mmHg 58%
    10:00 +9°C° 0.3 mm 5 mps 762 mmHg 56%
    11:00 +10°C° 0.2 mm 5 mps 763 mmHg 54%
    12:00 +10°C° 0.2 mm 5 mps 764 mmHg 53%
    13:00 +10°C° 0.2 mm 5 mps 764 mmHg 52%
    14:00 +10°C° 0.1 mm 5 mps 765 mmHg 50%
    15:00 +10°C° 0.1 mm 5 mps 765 mmHg 49%
    16:00 +10°C° 0.1 mm 5 mps 766 mmHg 47%
    17:00 +9°C° 0 mm 5 mps 766 mmHg 48%
    18:00 +8°C° 0 mm 5 mps 767 mmHg 48%
    19:00 +7°C° 0 mm 5 mps 767 mmHg 48%
    20:00 +8°C° 0 mm 5 mps 768 mmHg 51%
    21:00 +8°C° 0 mm 6 mps 768 mmHg 53%
    22:00 +8°C° 0 mm 6 mps 769 mmHg 56%
    23:00 +8°C° 0 mm 7 mps 769 mmHg 59%

    25 September, Tuesday

    Time Temperature Precipitation Wind Pressure Humidity
    00:00 +6°C° 0 mm 7 mps 769 mmHg 61%
    01:00 +6°C° 0 mm 7 mps 770 mmHg 64%
    02:00 +6°C° 0 mm 7 mps 770 mmHg 66%
    03:00 +6°C° 0 mm 7 mps 770 mmHg 67%
    04:00 +6°C° 0 mm 7 mps 770 mmHg 68%
    05:00 +6°C° 0 mm 8 mps 770 mmHg 70%
    06:00 +7°C° 0 mm 8 mps 770 mmHg 73%
    07:00 +7°C° 0 mm 8 mps 770 mmHg 75%
    08:00 +9°C° 0 mm 8 mps 770 mmHg 72%
    09:00 +11°C° 0 mm 9 mps 770 mmHg 68%
    10:00 +12°C° 0 mm 9 mps 770 mmHg 65%
    11:00 +12°C° 0 mm 10 mps 770 mmHg 65%
    12:00 +13°C° 0 mm 10 mps 770 mmHg 65%
    13:00 +13°C° 0 mm 11 mps 770 mmHg 66%
    14:00 +13°C° 0 mm 11 mps 770 mmHg 66%
    15:00 +12°C° 0 mm 10 mps 769 mmHg 67%
    16:00 +12°C° 0 mm 10 mps 769 mmHg 67%
    17:00 +12°C° 0 mm 10 mps 769 mmHg 70%
    18:00 +11°C° 0 mm 10 mps 769 mmHg 74%
    19:00 +9°C° 0 mm 10 mps 768 mmHg 77%
    20:00 +9°C° 0 mm 10 mps 768 mmHg 77%
    21:00 +9°C° 0 mm 10 mps 767 mmHg 77%
    22:00 +9°C° 0 mm 10 mps 767 mmHg 77%
    23:00 +9°C° 0 mm 11 mps 766 mmHg 75%

    26 September, Wednesday

    Time Temperature Precipitation Wind Pressure Humidity
    00:00 +11°C° 0 mm 11 mps 766 mmHg 74%
    01:00 +10°C° 0 mm 12 mps 765 mmHg 73%
    02:00 +10°C° 0.1 mm 13 mps 764 mmHg 72%
    03:00 +10°C° 0.1 mm 13 mps 763 mmHg 72%
    04:00 +10°C° 0.1 mm 13 mps 762 mmHg 72%
    05:00 +12°C° 0.1 mm 14 mps 761 mmHg 72%
    06:00 +12°C° 0.1 mm 14 mps 760 mmHg 71%
    07:00 +12°C° 0.1 mm 14 mps 760 mmHg 70%
    08:00 +11°C° 0.3 mm 15 mps 759 mmHg 74%
    09:00 +11°C° 0.3 mm 15 mps 758 mmHg 79%
    10:00 +11°C° 0.3 mm 15 mps 758 mmHg 83%
    11:00 +11°C° 0.1 mm 15 mps 758 mmHg 84%
    12:00 +13°C° 0.1 mm 14 mps 757 mmHg 85%
    13:00 +13°C° 0.1 mm 14 mps 757 mmHg 86%
    14:00 +13°C° 0 mm 13 mps 757 mmHg 86%
    15:00 +13°C° 0 mm 13 mps 757 mmHg 87%
    16:00 +13°C° 0 mm 12 mps 756 mmHg 88%
    17:00 +13°C° 0.2 mm 11 mps 756 mmHg 89%
    18:00 +13°C° 0.2 mm 11 mps 756 mmHg 90%
    19:00 +13°C° 0.2 mm 10 mps 756 mmHg 91%
    20:00 +13°C° 0.3 mm 10 mps 756 mmHg 91%
    21:00 +13°C° 0.3 mm 9 mps 756 mmHg 91%
    22:00 +13°C° 0.3 mm 9 mps 756 mmHg 91%
    23:00 +13°C° 0.3 mm 9 mps 756 mmHg 90%

    27 September, Thursday

    Time Temperature Precipitation Wind Pressure Humidity
    00:00 +12°C° 0.3 mm 8 mps 755 mmHg 90%
    01:00 +12°C° 0.3 mm 8 mps 755 mmHg 89%
    02:00 +12°C° 0.2 mm 8 mps 755 mmHg 88%
    03:00 +12°C° 0.2 mm 9 mps 754 mmHg 87%
    04:00 +12°C° 0.2 mm 9 mps 754 mmHg 86%
    05:00 +11°C° 0.6 mm 9 mps 754 mmHg 85%
    06:00 +11°C° 0.6 mm 9 mps 754 mmHg 83%
    07:00 +10°C° 0.6 mm 9 mps 754 mmHg 82%
    08:00 +10°C° 0.4 mm 9 mps 754 mmHg 81%
    09:00 +10°C° 0.4 mm 9 mps 754 mmHg 81%
    10:00 +9°C° 0.4 mm 10 mps 754 mmHg 80%
    11:00 +9°C° 0 mm 10 mps 754 mmHg 76%
    12:00 +11°C° 0 mm 11 mps 754 mmHg 72%
    13:00 +10°C° 0 mm 12 mps 754 mmHg 67%
    14:00 +10°C° 0 mm 12 mps 754 mmHg 65%
    15:00 +10°C° 0 mm 12 mps 754 mmHg 63%
    16:00 +10°C° 0 mm 13 mps 754 mmHg 61%
    17:00 +10°C° 0 mm 12 mps 754 mmHg 60%
    18:00 +9°C° 0 mm 12 mps 755 mmHg 58%
    19:00 +8°C° 0 mm 12 mps 755 mmHg 56%
    20:00 +8°C° 0 mm 13 mps 756 mmHg 57%
    21:00 +8°C° 0 mm 13 mps 757 mmHg 57%
    22:00 +7°C° 0 mm 13 mps 757 mmHg 57%
    23:00 +7°C° 0 mm 13 mps 758 mmHg 55%
    Show more